sat.trackr.live / text

‹ back to catalog

STARLINK-5366

NORAD 55499 · 2023-015BC

PAYLOAD ACTIVE UNKNOWN

§ Identity

Operator
Country
US
Launch date
2023-02-02
Launch site
AFETR
Launch vehicle
Mass (kg)
RCS (m²)

Purposes: comms

External: N2YO · Heavens-Above · Gunter

§ Orbital elements

Epoch: 2026-05-25T00:37:01.331040Z

Period
94.27 min
Inclination
42.9999°
Eccentricity
0.0001525
Mean motion
15.27588481 rev/d
Perigee alt
482.0 km
Apogee alt
484.1 km
Semi-major
6,861.2 km
B*
1.6803e-4
RAAN
268.2935°
Arg perigee
278.9784°
Mean anomaly
81.0895°
Rev number
18,302

§ Raw data

STARLINK-53661 55499U 23015BC  26145.02570985  .00004366  00000+0  16803-3 0  99962 55499  42.9999 268.2935 0001525 278.9784  81.0895 15.27588481183023

JSON: /api/v1/satellites/55499 · /tle

For live sub-satellite position, see the globe view (requires WebGL).

§ Visibility from observer

Set your observer location to see the next 7 days of passes ≥ 10°. The values pass through the URL so the page stays shareable.

No JS? Fill the form by hand. The geolocation button needs JavaScript.